Rayong, Thailand

5:08 PM ICT on February 06, 2016 (GMT +0700)
U-Taphao International

Weather History for VTBU - December, 2011

Change the Weather History Date:

Friday, December 23, 2011

  Actual Average Record
Temperature  
Mean Temperature 82 °F -  
Max Temperature 89 °F 86 °F 91 °F (2000)
Min Temperature 75 °F 69 °F 60 °F (1999)
Cooling Degree Days 17    
Growing Degree Days 32 (Base 50)    
Moisture  
Dew Point 70 °F    
Average Humidity 68    
Maximum Humidity 83    
Minimum Humidity 49    
Precipitation  
Precipitation 0.00 in - - ()
Sea Level Pressure  
Sea Level Pressure 29.80 in    
Wind  
Wind Speed 4 mph ()    
Max Wind Speed 9 mph    
Max Gust Speed -    
Visibility 3.5 miles    
Events      
Averages and records for this station are not official NWS values.
T = Trace of Precipitation, MM = Missing Value Source: Averaged Metar Reports

Daily Weather History Graph

Daily Weather History Graph

Search for Another Location

Airport or City:

Trip Planner

Search our weather history database for the weather conditions in past years. The results will help you decide how hot, cold, wet, or windy it might be!

Date:

Astronomy

Dec. 23, 2011 Rise Set
Actual Time 6:31 AM ICT 5:54 PM ICT
Civil Twilight 6:08 AM ICT 6:18 PM ICT
Nautical Twilight 5:42 AM ICT 6:44 PM ICT
Astronomical Twilight 5:15 AM ICT 7:10 PM ICT
Moon 4:47 AM ICT (12/23) 4:32 PM ICT (12/23)
Length of Visible Light 12h 09m
Length of Day
11h 23m
Waning Crescent, 3% of the Moon is Illuminated
Dec 23
Waning Crescent
Dec 25
New
Jan 1
First Quarter
Jan 9
Full
Jan 16
Last Quarter

Hourly Weather History & Observations

Time (ICT) Temp. Heat Index Dew Point Humidity Pressure Visibility Wind Dir Wind Speed Gust Speed Precip Events Conditions
12:00 AM 78.8 °F - 71.6 °F 78% 29.83 in 1.9 mi NNW 2.3 mph - N/A   Mostly Cloudy
1:30 AM 80.6 °F 83.9 °F 69.8 °F 70% 29.80 in 1.9 mi NE 5.8 mph - N/A   Mostly Cloudy
2:30 AM 80.6 °F 83.9 °F 69.8 °F 70% 29.80 in 1.9 mi North 3.5 mph - N/A   Mostly Cloudy
4:30 AM 78.8 °F - 68.0 °F 69% 29.80 in 1.9 mi NW 4.6 mph - N/A   Mostly Cloudy
5:00 AM 77.0 °F - 69.8 °F 78% 29.77 in 1.9 mi NW 3.5 mph - N/A   Mist
5:30 AM 84.2 °F 88.4 °F 69.8 °F 62% 29.77 in 1.9 mi NNW 3.5 mph - N/A   Mist
6:00 AM 77.0 °F - 68.0 °F 74% 29.77 in 1.9 mi North 4.6 mph - N/A   Mist
6:30 AM 75.2 °F - 68.0 °F 78% 29.80 in 1.9 mi NNW 4.6 mph - N/A   Mist
7:00 AM 75.2 °F - 68.0 °F 78% 29.80 in 1.9 mi North 4.6 mph - N/A   Mist
7:30 AM 75.2 °F - 68.0 °F 78% 29.83 in 1.9 mi North 4.6 mph - N/A   Unknown
8:00 AM 77.0 °F - 68.0 °F 74% 29.83 in 1.9 mi NE 3.5 mph - N/A   Mist
8:30 AM 78.8 °F - 68.0 °F 69% 29.83 in 2.5 mi North 3.5 mph - N/A   Mist
9:00 AM 80.6 °F 83.9 °F 69.8 °F 70% 29.86 in 2.5 mi NE 2.3 mph - N/A   Mostly Cloudy
9:30 AM 80.6 °F 83.2 °F 68.0 °F 65% 29.86 in 2.5 mi NNE 6.9 mph - N/A   Mostly Cloudy
10:00 AM 82.4 °F 85.4 °F 68.0 °F 62% 29.86 in 3.1 mi NNE 5.8 mph - N/A   Haze
10:30 AM 87.8 °F 91.4 °F 68.0 °F 52% 29.86 in 3.1 mi NE 4.6 mph - N/A   Haze
11:00 AM 87.8 °F 90.4 °F 66.2 °F 49% 29.83 in 3.7 mi ENE 9.2 mph - N/A   Mostly Cloudy
11:30 AM 87.8 °F 90.4 °F 66.2 °F 49% 29.83 in 4.3 mi NE 9.2 mph - N/A   Mostly Cloudy
12:00 PM 87.8 °F 90.4 °F 66.2 °F 49% 29.83 in 5.0 mi NE 6.9 mph - N/A   Mostly Cloudy
12:30 PM 87.8 °F 90.4 °F 66.2 °F 49% 29.83 in 5.0 mi ENE 9.2 mph - N/A   Mostly Cloudy
1:00 PM 87.8 °F 91.4 °F 68.0 °F 52% 29.80 in 5.6 mi NE 4.6 mph - N/A   Mostly Cloudy
1:30 PM 86.0 °F 90.4 °F 69.8 °F 58% 29.80 in 5.6 mi South 6.9 mph - N/A   Mostly Cloudy
2:00 PM 87.8 °F 92.6 °F 69.8 °F 55% 29.77 in 5.6 mi SSE 6.9 mph - N/A   Mostly Cloudy
2:30 PM 89.6 °F 94.7 °F 69.8 °F 52% 29.77 in 6.2 mi South 4.6 mph - N/A   Mostly Cloudy
3:00 PM 87.8 °F 93.8 °F 71.6 °F 58% 29.74 in 6.2 mi South 5.8 mph - N/A   Mostly Cloudy
3:30 PM 87.8 °F 93.8 °F 71.6 °F 58% 29.74 in 6.2 mi SSW 9.2 mph - N/A   Mostly Cloudy
4:00 PM 86.0 °F 91.8 °F 71.6 °F 62% 29.74 in 5.6 mi South 6.9 mph - N/A   Mostly Cloudy
4:30 PM 86.0 °F 93.4 °F 73.4 °F 66% 29.74 in 5.6 mi South 9.2 mph - N/A   Mostly Cloudy
5:00 PM 84.2 °F 90.9 °F 73.4 °F 70% 29.74 in 5.0 mi South 6.9 mph - N/A   Mostly Cloudy
5:30 PM 82.4 °F 88.2 °F 73.4 °F 74% 29.74 in 5.0 mi West 9.2 mph - N/A   Mostly Cloudy
6:00 PM 82.4 °F 88.2 °F 73.4 °F 74% 29.74 in 5.0 mi West 9.2 mph - N/A   Mostly Cloudy
6:30 PM 80.6 °F 85.4 °F 73.4 °F 79% 29.77 in 4.3 mi West 3.5 mph - N/A   Mostly Cloudy
7:00 PM 82.4 °F 88.2 °F 73.4 °F 74% 29.77 in 4.3 mi East 2.3 mph - N/A   Mostly Cloudy
7:30 PM 82.4 °F 88.2 °F 73.4 °F 74% 29.77 in 3.7 mi Calm Calm - N/A   Scattered Clouds
8:00 PM 80.6 °F 85.4 °F 73.4 °F 79% 29.80 in 3.7 mi NNE 3.5 mph - N/A   Scattered Clouds
8:30 PM 78.8 °F - 73.4 °F 83% 29.80 in 3.1 mi North 3.5 mph - N/A   Scattered Clouds
9:00 PM 78.8 °F - 73.4 °F 83% 29.80 in 3.1 mi North 3.5 mph - N/A   Scattered Clouds
9:30 PM 78.8 °F - 71.6 °F 78% 29.80 in 2.5 mi NNE 3.5 mph - N/A   Scattered Clouds
10:00 PM 78.8 °F - 69.8 °F 74% 29.83 in 2.5 mi NNE 3.5 mph - N/A   Scattered Clouds
10:30 PM 77.0 °F - 69.8 °F 78% 29.83 in 2.5 mi North 4.6 mph - N/A   Mist
11:00 PM 77.0 °F - 69.8 °F 78% 29.83 in 2.5 mi NNE 4.6 mph - N/A   Mist
11:30 PM 77.0 °F - 69.8 °F 78% 29.83 in 2.5 mi NNE 2.3 mph - N/A   Mist